[[{"header":{"parameterUnit":"m.s-1","parameterCategory":1,"la1":30.2992,"la2":30.254,"lo1":-89.0895,"lo2":-89.0443,"dy":0.0025,"dx":0.0025,"nx":19,"ny":19,"refTime":"2026-05-14T03:00:00:Z","depth":0,"parameterNumber":2,"parameterNumberName":"U-component_of_WINDS"},"data":[0,0,0,1.3417,1.3417,1.3444,1.3444,1.3484,1.3485,0,0,0,0,0,0,0,0,0,0,0,1.3412,1.3413,1.3417,1.3418,1.3444,1.3444,1.3484,1.3485,0,0,0,0,0,0,0,0,0,0,0,1.3412,1.3413,1.3413,1.3418,1.3444,1.3444,1.3484,1.3462,0,0,0,0,0,0,0,0,0,0,1.3435,1.3434,1.3413,1.3413,1.3418,1.3444,1.3444,1.3461,1.3463,1.3475,0,1.3486,0,1.3486,1.3488,1.3488,0,0,0,1.3415,1.3432,1.3436,1.3413,1.3418,1.3444,1.3431,1.3462,1.3465,1.3478,1.3487,1.3488,1.3487,1.3488,1.3488,1.3565,1.3566,0,0,1.3413,1.3419,1.3434,1.3438,1.3435,1.343,1.3432,1.3464,1.3473,1.3487,1.3489,1.3488,1.3488,1.3489,1.3565,1.3565,0,0,0,1.3411,1.3418,1.3421,1.3437,1.3441,1.3431,1.3433,1.3472,1.3472,1.3489,1.3488,1.3489,1.3489,1.3564,1.3565,1.3595,0,0,0,1.341,1.3417,1.3421,1.3424,1.3441,1.3457,1.344,1.347,1.3473,1.3488,1.3489,1.349,1.3564,1.3565,1.3593,1.3608,0,0,0,1.3409,1.3417,1.3422,1.3425,1.3436,1.3456,1.3458,1.3471,1.3473,1.3488,1.349,1.3563,1.3565,1.3591,1.3605,1.363,0,0,0,1.341,1.3447,1.3422,1.3463,1.3436,1.3474,1.3458,1.3486,1.3503,1.3489,1.3564,1.3565,1.3591,1.3603,1.3629,1.3653,1.3663,0,0,1.346,1.3453,1.3477,1.3455,1.3499,1.347,1.3519,1.3528,1.3524,1.3552,1.3554,1.3594,1.3605,1.363,1.3721,1.373,0,0,0,1.3494,1.3511,1.3522,1.3538,1.3547,1.3556,1.3557,1.3561,1.3585,1.354,1.3609,1.3616,1.363,1.3642,1.3649,1.3662,1.357,1.357,1.357,1.3571,1.3565,1.3604,1.3602,1.3618,1.362,1.3633,1.3639,1.3627,1.3644,1.3652,1.3708,1.3721,1.3727,1.374,1.3664,1.3664,1.3664,1.3664,1.3643,1.3666,1.3652,1.3684,1.3678,1.3705,1.3709,1.37,1.3725,1.3701,1.3713,1.3688,1.3736,1.3747,1.3667,1.3666,1.3666,1.3666,1.3666,1.3693,1.3703,1.3708,1.3732,1.3752,1.3748,1.3773,1.3766,1.376,1.3773,1.3781,1.378,1.3779,1.3777,1.3777,1.3778,1.3778,1.3778,1.3778,1.3742,1.3747,1.3769,1.3783,1.3793,1.3806,1.381,1.3821,1.383,1.3823,1.3823,1.3811,1.3742,1.3725,1.3781,1.378,1.378,1.378,1.378,1.3817,1.3799,1.3833,1.3844,1.3861,1.3881,1.3873,1.3895,1.3903,1.3915,1.3901,1.3851,1.3843,1.3838,1.3824,1.3901,1.3901,1.3901,1.3901,1.3859,1.3855,1.3889,1.3907,1.3924,1.392,1.396,1.3964,1.3966,1.397,1.3958,1.3939,1.3933,1.3929,1.3921,1.3908,1.4006,1.4006,1.4006,1.3905,1.3902,1.3937,1.3939,1.3952,1.3963,1.4001,1.4022,1.402,1.401,1.3974,1.3969,1.3938,1.3928,1.3916,1.3904,1.388,0,0]},{"header":{"parameterUnit":"m.s-1","parameterCategory":1,"la1":30.2992,"la2":30.254,"lo1":-89.0895,"lo2":-89.0443,"dy":0.0025,"dx":0.0025,"nx":19,"ny":19,"refTime":"2026-05-14T03:00:00:Z","depth":0,"parameterNumber":3,"parameterNumberName":"V-component_of_WINDS"},"data":[0,0,0,-2.6953,-2.6956,-2.7107,-2.7107,-2.7296,-2.7298,0,0,0,0,0,0,0,0,0,0,0,-2.6907,-2.6908,-2.6953,-2.6957,-2.7107,-2.7107,-2.7296,-2.7298,0,0,0,0,0,0,0,0,0,0,0,-2.6906,-2.6907,-2.6909,-2.6957,-2.7107,-2.7107,-2.7296,-2.7183,0,0,0,0,0,0,0,0,0,0,-2.7038,-2.6993,-2.6907,-2.6909,-2.6958,-2.7106,-2.7108,-2.7178,-2.719,-2.7227,0,-2.7259,0,-2.7281,-2.731,-2.7311,0,0,0,-2.6958,-2.6983,-2.7025,-2.6909,-2.6959,-2.7106,-2.7039,-2.7185,-2.7199,-2.7243,-2.7261,-2.7268,-2.7284,-2.7311,-2.7312,-2.7519,-2.752,0,0,-2.695,-2.6932,-2.7015,-2.7034,-2.7011,-2.7035,-2.7044,-2.7193,-2.7212,-2.7262,-2.7273,-2.7288,-2.7313,-2.7314,-2.7518,-2.7519,0,0,0,-2.6925,-2.6927,-2.6965,-2.7026,-2.7053,-2.7039,-2.705,-2.7205,-2.722,-2.7275,-2.729,-2.7314,-2.7316,-2.7517,-2.7518,-2.7546,0,0,0,-2.692,-2.6912,-2.6962,-2.6953,-2.7051,-2.7131,-2.7058,-2.7209,-2.7227,-2.7289,-2.7314,-2.7318,-2.7516,-2.7518,-2.7544,-2.7563,0,0,0,-2.6897,-2.691,-2.6931,-2.6951,-2.7016,-2.7129,-2.7152,-2.7213,-2.7236,-2.7311,-2.7318,-2.7515,-2.7517,-2.7541,-2.7558,-2.7612,0,0,0,-2.6868,-2.6953,-2.6931,-2.7031,-2.7014,-2.7146,-2.7151,-2.725,-2.7318,-2.7315,-2.7516,-2.7518,-2.754,-2.7556,-2.7609,-2.7655,-2.7672,0,0,-2.6966,-2.6964,-2.7025,-2.7009,-2.714,-2.7124,-2.726,-2.7338,-2.736,-2.7465,-2.747,-2.7545,-2.7558,-2.7612,-2.7774,-2.7787,0,0,0,-2.705,-2.7093,-2.7131,-2.7196,-2.7258,-2.7313,-2.7372,-2.7402,-2.7491,-2.7411,-2.7579,-2.7588,-2.762,-2.7642,-2.7654,-2.7683,-2.7528,-2.7527,-2.7527,-2.7162,-2.7187,-2.7289,-2.7333,-2.7395,-2.7456,-2.7509,-2.7558,-2.7565,-2.7604,-2.7635,-2.7731,-2.7756,-2.7765,-2.7795,-2.7661,-2.7661,-2.7661,-2.7661,-2.7307,-2.7373,-2.738,-2.7482,-2.7508,-2.7593,-2.7655,-2.7657,-2.7741,-2.7709,-2.7739,-2.7702,-2.7779,-2.7807,-2.7664,-2.7663,-2.7663,-2.7663,-2.7663,-2.7384,-2.742,-2.7455,-2.7551,-2.7622,-2.7663,-2.7743,-2.7764,-2.7783,-2.7813,-2.7848,-2.7848,-2.785,-2.7828,-2.7828,-2.7829,-2.7829,-2.7829,-2.783,-2.7451,-2.7489,-2.7554,-2.7628,-2.7672,-2.7733,-2.7796,-2.784,-2.7894,-2.7903,-2.7903,-2.7906,-2.7782,-2.7751,-2.7835,-2.7834,-2.7833,-2.7833,-2.7832,-2.7589,-2.7561,-2.7662,-2.7706,-2.7795,-2.7865,-2.789,-2.7979,-2.8018,-2.8057,-2.8054,-2.7959,-2.7959,-2.795,-2.7924,-2.8048,-2.8048,-2.8048,-2.8048,-2.7654,-2.7656,-2.7764,-2.7834,-2.7905,-2.7939,-2.8052,-2.8102,-2.8148,-2.8175,-2.816,-2.8127,-2.8117,-2.8123,-2.811,-2.8086,-2.8249,-2.8249,-2.8249,-2.7741,-2.7751,-2.7843,-2.7889,-2.796,-2.8021,-2.8128,-2.8208,-2.8256,-2.8258,-2.8196,-2.8187,-2.8135,-2.8116,-2.8117,-2.8096,-2.8053,0,0]}]]